Terug naar catalogus

STARLINK-30207

ActiefCommunicatieVLEO
NORAD 57407·PAYLOAD·🇺🇸 United States

Gelanceerd Jul 20, 2023 vanaf Vandenberg Space Force Base

Loading…

Volgende Passages (komende 24 uur)

TLE

VersSource: CelesTrak SupGP

Epoch: Sep 15, 2026, 02:52 UTC

1 57407C 23102D   26258.11993056 -.00017190  00000+0 -62264-3 0  2588
2 57407  43.0023 244.2727 0001327 262.5616 307.5695 15.27585788    18

Volg STARLINK-30207 in realtime met AllMySat

Download on the App Store